• Join FlightAware (Why Join?)
  • Login
  • US Flag GB Flag 
20:18 EST


 

Airport Tracker/Info


-or-


 

Live Flight TrackerFlight Track Log ✈ UAL256 ✈ 21-Apr-2013 ✈ KSJC - KDEN

Flight Track Log - Related Links

Times and Time Zones

All times are in EDT time to prevent confusion due to time zone crossing. See the UAL256 flight status page for this flight to view local times or setup timezone preferences in your user account.

Time Position Orientation Groundspeed Altitude Reporting Facility
EDT Latitude Longitude Course Direction KTS MPH feet Rate Location/Type
17:41 37.3833 -121.9500 67° East 149 171 1,100  Level Northern Cal TRACON
17:42 37.4167 -121.9833 322° Northwest 209 241 3,000 1,980 Climbing Northern Cal TRACON
17:43 37.7260 -121.9782 354° North  Level FlightAware Approximate
17:43 37.4333 -121.9167 73° East 234 269 5,100  Level Northern Cal TRACON
17:44 37.8133 -121.9172 76° East  Level FlightAware Approximate
17:44 37.4000 -121.8667 130° Southeast 227 261 5,000  Level Northern Cal TRACON
17:45 37.8542 -121.7645 63° Northeast  Level FlightAware Approximate
17:45 37.3500 -121.8000 133° Southeast 244 281 7,300  Level Northern Cal TRACON
17:45 37.3331 -121.7950 167° South 239 275 7,900 2,460 Climbing Oakland Center
17:46 37.8956 -121.6134 67° East  Level FlightAware Approximate
17:46 37.2942 -121.8575 232° Southwest 286 329 10,500  Level Oakland Center
17:47 37.3561 -121.9225 320° Northwest 302 348 12,300 2,160 Climbing Oakland Center
17:48 37.4167 -121.9500 340° North 340 391 14,300 2,340 Climbing Northern Cal TRACON
17:50 37.6453 -121.9703 356° North 365 420 19,600 2,160 Climbing Oakland Center
17:51 37.7214 -121.8775 44° Northeast 398 458 21,700 1,980 Climbing Oakland Center
17:52 37.7836 -121.7217 63° Northeast 414 476 23,700 1,800 Climbing Oakland Center
17:53 37.8381 -121.5875 63° Northeast 427 491 25,500 1,680 Climbing Oakland Center
17:54 37.8947 -121.4486 63° Northeast 439 505 27,200 1,560 Climbing Oakland Center
17:55 37.9511 -121.3092 63° Northeast 447 514 28,700 1,380 Climbing Oakland Center
17:56 38.0011 -121.1636 66° East 458 527 30,100 1,260 Climbing Oakland Center
17:57 38.0256 -121.0011 79° East 471 542 31,400 1,440 Climbing Oakland Center
17:58 38.0506 -120.8397 79° East 471 542 33,100 1,500 Climbing Oakland Center
17:59 38.0786 -120.6475 79° East 467 537 34,600 1,320 Climbing Oakland Center
18:00 38.1025 -120.4872 79° East 464 534 35,900 960 Climbing Oakland Center
18:01 38.1264 -120.3261 79° East 465 535 36,600 480 Climbing Oakland Center
18:02 38.1489 -120.1639 80° East 466 536 37,000 180 Climbing Oakland Center
18:03 38.1728 -120.0036 79° East 465 535 37,000  Level Oakland Center
18:04 38.1942 -119.8422 80° East 464 534 37,000  Level Oakland Center
18:05 38.2164 -119.6792 80° East 467 537 37,000  Level Oakland Center
18:06 38.2433 -119.4850 80° East 465 535 37,000  Level Oakland Center
18:07 38.2636 -119.3336 80° East 468 539 37,000  Level Oakland Center
18:08 38.2856 -119.1731 80° East 464 534 37,000  Level Oakland Center
18:09 38.3033 -119.0103 82° East 467 537 37,000  Level Oakland Center
18:10 38.3089 -118.8436 88° East 474 545 37,000  Level Oakland Center
18:11 38.3153 -118.6422 88° East 477 549 37,000  Level Oakland Center
18:12 38.3203 -118.4758 88° East 475 547 37,000  Level Oakland Center
18:14 38.3253 -118.3081 88° East 476 548 37,000  Level Oakland Center
18:15 38.3306 -118.1389 88° East 478 550 37,000  Level Oakland Center
18:16 38.3344 -117.9672 88° East 479 551 37,000  Level Oakland Center
18:17 38.3389 -117.7986 88° East 476 548 37,000  Level Oakland Center
18:18 38.3431 -117.6300 88° East 475 547 37,000  Level Oakland Center
18:19 38.3467 -117.4600 88° East 476 548 37,000  Level Oakland Center
18:19 38.3492 -117.3575 88° East 475 547 37,000  Level Salt Lake Center
18:20 38.3511 -117.2667 88° East 473 544 37,000  Level Oakland Center
18:21 38.3539 -117.0994 89° East 474 545 37,000 -240 Level Oakland Center
18:21 38.3553 -117.0164 89° East 475 547 36,700 -1,260 Descending Salt Lake Center
18:22 38.3589 -116.8461 88° East 474 545 35,100 -1,140 Descending Salt Lake Center
18:23 38.3600 -116.7797 89° East 474 545 35,000 -120 Descending Oakland Center
18:24 38.3617 -116.5803 89° East 468 539 35,000  Level Oakland Center
18:25 38.3644 -116.4122 89° East 472 543 35,000  Level Oakland Center
18:25 38.3650 -116.3456 89° East 471 542 35,000  Level Salt Lake Center
18:26 38.3678 -116.1767 89° East 476 548 35,000  Level Salt Lake Center
18:27 38.3694 -116.0103 89° East 471 542 35,000  Level Salt Lake Center
18:28 38.3708 -115.8428 89° East 472 543 35,000  Level Salt Lake Center
18:29 38.3719 -115.6422 90° East 474 545 35,000  Level Salt Lake Center
18:30 38.3736 -115.4739 89° East 474 545 35,000  Level Salt Lake Center
18:31 38.3786 -115.3256 87° East 473 544 35,000  Level Salt Lake Center
18:32 38.3836 -115.1236 88° East 474 545 35,000  Level Salt Lake Center
18:33 38.3892 -114.9567 88° East 473 544 35,000  Level Salt Lake Center
18:35 38.3925 -114.7886 88° East 473 544 35,000  Level Salt Lake Center
18:36 38.3964 -114.6192 88° East 477 549 35,000  Level Salt Lake Center
18:37 38.4006 -114.4517 88° East 474 545 35,000  Level Salt Lake Center
18:38 38.4042 -114.2828 88° East 476 548 35,000  Level Salt Lake Center
18:39 38.4075 -114.1150 88° East 473 544 35,000  Level Salt Lake Center
18:40 38.4111 -113.9439 88° East 482 555 35,000  Level Salt Lake Center
18:41 38.4131 -113.7733 89° East 481 554 35,000  Level Salt Lake Center
18:42 38.4147 -113.5697 89° East 478 550 35,000  Level Salt Lake Center
18:43 38.4172 -113.3994 89° East 479 551 35,000  Level Salt Lake Center
18:44 38.4200 -113.2261 89° East 483 556 35,000  Level Salt Lake Center
18:45 38.4217 -113.0544 89° East 484 557 35,000  Level Salt Lake Center
18:46 38.4228 -112.8831 89° East 482 555 35,000  Level Salt Lake Center
18:47 38.4239 -112.7119 89° East 481 554 35,000  Level Salt Lake Center
18:48 38.4250 -112.5383 89° East 485 558 35,000  Level Salt Lake Center
18:49 38.4253 -112.3650 90° East 487 560 35,000  Level Salt Lake Center
18:50 38.4264 -112.1892 89° East 492 566 35,000  Level Salt Lake Center
18:51 38.4256 -112.0158 90° East 490 564 35,000  Level Salt Lake Center
18:52 38.4256 -111.8053 90° East 493 567 35,000  Level Salt Lake Center
18:53 38.4250 -111.6314 90° East 493 567 35,000  Level Salt Lake Center
18:54 38.4250 -111.4589 90° East 489 563 35,000  Level Salt Lake Center
18:55 38.4244 -111.2869 90° East 486 559 35,000  Level Salt Lake Center
18:56 38.4225 -111.1128 91° East 490 564 35,000  Level Salt Lake Center
18:57 38.4214 -110.9186 90° East 492 566 35,000  Level Salt Lake Center
18:58 38.4192 -110.7511 91° East 493 567 35,000  Level Salt Lake Center
18:59 38.4200 -110.5817 90° East 492 566 35,000  Level Denver Center
19:00 38.4242 -110.3875 88° East 490 564 35,000  Level Denver Center
19:01 38.4272 -110.2169 89° East 502 578 35,000  Level Denver Center
19:02 38.4311 -110.0133 89° East 514 592 35,000  Level Denver Center
19:03 38.4339 -109.8386 89° East 515 593 35,000  Level Denver Center
19:04 38.4372 -109.6369 89° East 511 588 35,000  Level Denver Center
19:05 38.4406 -109.4633 89° East 513 590 35,100  Climbing Denver Center
19:06 38.4419 -109.2875 89° East 518 596 35,000 -60 Descending Denver Center
19:07 38.4456 -109.0758 89° East 531 611 35,000  Level Denver Center
19:08 38.4469 -108.8950 89° East 534 615 35,000  Level Denver Center
19:09 38.4489 -108.6814 89° East 541 623 35,000  Level Denver Center
19:10 38.4506 -108.4994 89° East 537 618 35,000  Level Denver Center
19:11 38.4511 -108.2881 90° East 535 616 35,000 -60 Level Denver Center
19:12 38.4522 -108.1064 89° East 538 619 34,900  Descending Denver Center
19:14 38.4506 -107.8958 91° East 535 616 35,000  Climbing Denver Center
19:15 38.4547 -107.7142 88° East 536 617 35,000  Level Denver Center
19:17 38.5539 -107.3678 70° East 496 571 35,000 -60 Level Denver Center
19:18 38.6281 -107.2008 60° Northeast 487 560 34,900  Descending Denver Center
19:19 38.6967 -107.0464 60° Northeast 493 567 35,100  Climbing Denver Center
19:20 38.7636 -106.8983 60° Northeast 484 557 35,000 -120 Descending Denver Center
19:21 38.8292 -106.7458 61° Northeast 490 564 34,900 -1,020 Descending Denver Center
19:22 38.9075 -106.5739 60° Northeast 491 565 33,000 -2,220 Descending Denver Center
19:23 38.9756 -106.4283 59° Northeast 495 570 30,400 -2,580 Descending Denver Center
19:24 39.0500 -106.2636 60° Northeast 479 551 27,700 -1,860 Descending Denver Center
19:25 39.1083 -106.1336 60° Northeast 449 517 26,600 -1,500 Descending Denver Center
19:26 39.1661 -106.0008 61° Northeast 424 488 24,700 -1,500 Descending Denver Center
19:27 39.2233 -105.8706 60° Northeast 417 480 23,200 -1,860 Descending Denver Center
19:28 39.2981 -105.7025 60° Northeast 402 463 20,500 -2,280 Descending Denver Center
19:29 39.3517 -105.5819 60° Northeast 389 448 18,500 -1,440 Descending Denver Center
19:30 39.3994 -105.4656 62° Northeast 381 438 17,600 -1,020 Descending Denver Center
19:31 39.4017 -105.3331 89° East 338 389 16,500 -1,260 Descending Denver Center
19:32 39.4444 -105.2361 60° Northeast 318 366 15,000 -1,560 Descending Denver Center
19:33 39.5156 -105.1575 40° Northeast 311 358 13,300 -1,020 Descending Denver Center
19:34 39.6003 -105.1464 North 308 354 13,000 -600 Descending Denver Center
19:35 39.6756 -105.1225 14° North 266 306 12,100 -1,020 Descending Denver Center
19:36 39.7233 -105.0578 46° Northeast 253 291 11,000 -1,320 Descending Denver Center
19:37 39.7658 -104.9786 55° Northeast 248 285 9,400 -1,560 Descending Denver Center